Location: Edinburg
(41.0145°N, 80.4367°W)
Time: 05:20:26
(UTC+00:00)

Daily predictions for brighter satellites

Satellite Brightness Start Highest point End
(mag) Time Altitude Azimuth Time Altitude Azimuth Time Altitude Azimuth
SL-4 R/B 3.5 00:02:05 10° WNW 00:05:17 27° NNW 00:05:17 27° NNW
COSMO-SKYMED 1 3.9 00:04:29 12° N 00:08:08 39° WNW 00:12:09 10° SW
Cosmos 1908 Rocket 3.8 00:04:54 10° NNW 00:09:17 66° W 00:13:36 10° S
YAOGAN 1 3.2 00:12:10 10° S 00:16:23 55° W 00:20:39 10° NNW
Cosmos 2219 Rocket 4.2 00:12:06 10° WSW 00:16:27 23° NW 00:20:51 10° N
Cosmos 407 Rocket 4.5 00:14:10 10° S 00:17:05 33° S 00:17:05 33° S
ISS -0.6 00:27:58 10° NW 00:28:08 11° NW 00:28:08 11° NW
Atlas Centaur 2 4.5 01:07:41 10° WSW 01:14:12 25° SSW 01:15:35 24° S
SL-16 R/B 4.1 01:20:40 10° SW 01:23:20 26° WSW 01:23:20 26° WSW
Cosmos 2297 Rocket 3.8 09:43:58 23° NNE 09:43:58 23° NNE 09:46:02 10° NNE
USA 234 3.6 09:35:11 10° NE 09:40:25 51° N 09:40:25 51° N
Cosmos 2227 Rocket 3.6 09:47:17 27° NNE 09:47:17 27° NNE 09:49:46 10° NNE
Cosmos 1607 4.2 09:52:47 55° N 09:52:47 55° N 09:57:40 10° NNE
Meteor 2-6 Rocket 4.5 09:53:02 58° S 09:53:02 58° S 09:57:38 10° S
Meteor 1-10 Rocket 4.1 09:58:15 83° NNW 09:58:29 89° W 10:04:21 10° S
Lacrosse 5 1.9 10:02:37 74° ESE 10:02:37 74° ESE 10:07:13 10° SE
Geosat 4.4 09:59:03 10° SE 10:03:59 60° ENE 10:05:12 46° N
Cosmos 2034 Rocket 4.4 09:57:57 10° S 10:04:06 62° E 10:10:22 10° NNE
STARLINK-69 4.4 10:08:51 48° ESE 10:08:51 48° ESE 10:11:52 10° ESE
STARLINK-66 4.3 10:10:23 51° ESE 10:10:23 51° ESE 10:13:29 10° ESE
STARLINK-70 4.0 10:15:08 58° ESE 10:15:08 58° ESE 10:18:26 10° SE
SKYMED 2 4.5 10:10:33 10° SE 10:14:41 46° ENE 10:17:14 22° N
STARLINK-68 3.9 10:16:52 60° SE 10:16:52 60° SE 10:20:11 10° SE
STARLINK-58 3.9 10:18:20 63° SE 10:18:20 63° SE 10:21:45 10° SE
STARLINK-62 3.8 10:20:03 65° SE 10:20:03 65° SE 10:23:30 10° SE
SL-16 R/B 2.1 10:18:34 46° NNW 10:20:22 86° WSW 10:26:03 10° SSE
Meteor 1-27 Rocket 3.8 10:15:49 15° N 10:20:51 86° E 10:26:46 10° S
STARLINK-63 3.7 10:21:32 69° SE 10:21:32 69° SE 10:25:05 10° SE
Meteor 2-11 Rocket 4.4 10:15:49 10° S 10:21:54 84° E 10:28:03 10° N
STARLINK-72 3.6 10:24:35 75° SSE 10:24:35 75° SSE 10:28:17 10° SE
CZ-4C R/B 3.2 10:21:54 24° NNW 10:26:45 70° NE 10:35:01 10° SE
STARLINK-59 3.5 10:27:53 73° S 10:27:53 73° S 10:31:40 10° SE
ALOS 3.2 10:23:41 10° NNE 10:28:15 50° E 10:32:46 10° S
Cosmos 2082 3.8 10:28:28 49° WNW 10:28:28 49° WNW 10:33:56 10° NNE
GEOS 3 Rocket 3.6 10:23:30 10° SSE 10:28:29 57° WSW 10:29:11 52° W
BREEZE-M DEB (TANK) 4.2 10:31:15 27° SW 10:31:15 27° SW 10:33:41 10° S
Cosmos 1241 Rocket 4.3 10:27:57 34° NNW 10:30:53 86° WSW 10:37:05 10° SSE
STARLINK-55 3.5 10:31:01 72° SSW 10:31:01 72° SSW 10:34:55 10° SE
STARLINK-28 3.5 10:32:41 69° SW 10:32:41 69° SW 10:36:38 10° SE
Cosmos 2237 Rocket 3.9 10:36:31 17° SW 10:36:31 17° SW 10:38:14 10° SSW
COBE Rocket 4.0 10:29:16 10° S 10:33:54 49° WSW 10:33:54 49° WSW
STARLINK-53 3.5 10:35:49 65° SW 10:35:54 65° SW 10:39:52 10° SE
PSLV R/B 3.7 10:32:40 10° N 10:36:46 79° WNW 10:40:52 10° SSW
SJ-12 4.0 10:33:05 10° NNE 10:37:14 76° ESE 10:41:19 10° S
STARLINK-54 3.5 10:37:28 62° SW 10:37:36 62° SW 10:41:34 10° SE
Cosmos 1484 Rocket 2.6 10:34:04 10° N 10:38:02 73° WNW 10:41:55 10° SSW
Cosmos 1464 Rocket 4.0 10:32:33 10° SSW 10:38:34 51° WNW 10:44:34 10° N
Cosmos 1371 Rocket 3.8 10:33:56 10° SSW 10:39:11 74° WNW 10:44:26 10° NNE
ATLAS 5 CENTAUR R/B 3.2 10:42:13 21° NNW 10:42:13 21° NNW 10:44:40 10° NNE
STARLINK-34 3.6 10:40:38 56° WSW 10:40:53 58° SW 10:44:49 10° SE
Cosmos 1933 Rocket 3.4 10:36:50 10° S 10:41:09 85° W 10:45:31 10° N
STARLINK-61 4.4 10:43:34 34° SW 10:43:34 34° SW 10:47:02 10° SSE
STARLINK-81 3.5 10:43:31 55° WSW 10:43:59 60° SW 10:47:56 10° SE
STARLINK-24 3.7 10:45:23 50° WSW 10:45:49 52° SW 10:49:43 10° SSE
Cosmos 407 Rocket 3.4 10:43:21 21° NNW 10:46:58 79° WSW 10:52:18 10° SSE
STARLINK-77 3.7 10:46:44 50° WSW 10:47:18 56° SW 10:51:14 10° SE
STARLINK-25 3.7 10:47:48 48° WSW 10:48:25 54° SW 10:52:19 10° SE
Cosmos 614 Rocket 3.8 10:45:29 25° NNW 10:48:29 73° WSW 10:53:33 10° S
PSLV R/B 3.8 10:49:46 36° SSE 10:49:46 36° SSE 10:51:54 10° E
Okean 1-7 4.0 10:45:44 10° N 10:50:01 48° E 10:54:15 10° SSE
STARLINK-71 3.9 10:50:09 43° WSW 10:50:44 46° SW 10:54:35 10° SSE
STARLINK-79 3.8 10:50:57 44° W 10:51:40 50° SW 10:55:33 10° SSE
STARLINK-78 3.9 10:53:05 41° W 10:53:53 48° SW 10:57:45 10° SSE
STARLINK-57 4.0 10:54:50 38° WSW 10:55:38 44° SW 10:59:28 10° SSE
Cosmos 1140 Rocket 3.5 10:51:10 13° NNW 10:55:51 85° ENE 11:01:04 10° SSE
STARLINK-49 4.0 10:56:17 37° W 10:57:11 45° SW 11:01:01 10° SSE
CZ-4B DEB 4.1 10:52:04 10° NNE 10:57:36 79° WNW 11:03:07 10° SSW
Aureole 1 Rocket 4.4 10:56:18 29° WNW 10:57:51 34° WSW 11:03:46 10° SSW
STARLINK-27 4.0 10:57:19 36° W 10:58:16 44° SW 11:02:04 10° SSE
STARLINK-74 4.1 10:59:27 34° W 11:00:29 42° SW 11:04:17 10° SSE
STARLINK-39 4.1 11:01:03 33° W 11:02:08 40° SW 11:05:54 10° SSE
COSMO-SKYMED 1 2.7 10:58:26 10° S 11:02:39 50° W 11:05:45 17° NNW
Cosmos 1812 3.9 11:04:00 24° WSW 11:04:00 24° WSW 11:06:22 10° SSW
STARLINK 4.2 11:02:39 31° W 11:03:46 39° SW 11:07:30 10° SSE
Okean O Rocket 1.6 10:59:41 10° NNE 11:04:06 86° ESE 11:08:29 10° SSW
STARLINK-42 4.3 11:04:24 29° W 11:05:32 35° SW 11:09:12 10° SSE
STARLINK-21 4.3 11:05:52 29° W 11:07:06 36° SW 11:10:47 10° SSE
Cosmos 1023 Rocket 4.4 11:03:39 12° NNW 11:08:27 72° WSW 11:13:39 10° S
Cosmos 2242 Rocket 3.8 11:05:06 12° NNW 11:09:09 48° W 11:13:29 10° SSW
STARLINK-41 4.5 11:10:06 25° W 11:11:36 34° SW 11:15:18 10° SSE
STARLINK-76 4.5 11:10:38 25° W 11:12:02 32° SW 11:15:38 10° SSE
Cosmos 1470 Rocket 4.4 11:09:19 10° SW 11:13:10 28° WNW 11:17:02 10° NNW
Cosmos 2263 Rocket 2.4 11:07:52 10° SSW 11:13:26 75° ESE 11:19:01 10° NNE
Cosmos 1461 3.3 11:10:25 14° NNW 11:14:00 63° NE 11:18:21 10° SE
Cosmos 2227 4.2 11:10:59 10° SSW 11:16:43 77° WNW 11:22:31 10° NNE
Nadezhda 4 Rocket 4.3 11:11:34 10° NNW 11:17:21 42° W 11:23:04 10° SSW
Cosmos 1703 Rocket 3.5 11:16:17 10° NNW 11:20:42 63° W 11:25:03 10° S
USA 116 4.1 11:17:29 10° S 11:21:28 51° W 11:26:00 10° NNW
USA 234 4.3 11:18:31 10° NE 11:23:44 26° NNW 11:27:46 15° WNW
Cosmos 2084 Rocket 3.5 11:20:52 14° NW 11:24:44 86° NE 11:29:08 10° SE
Cosmos 2297 Rocket 4.0 11:25:49 12° NW 11:25:49 12° NW 11:27:38 10° NNW
Meteor 1-25 Rocket 4.2 11:20:25 10° SSW 11:25:56 64° WNW 11:31:33 10° N
Helios 1A Rocket 2.9 11:22:06 10° N 11:26:03 54° WNW 11:29:58 10° SSW
Cosmos 2056 Rocket 4.1 11:24:21 10° SW 11:28:54 32° WNW 11:33:28 10° N
Cosmos 2227 Rocket 3.9 11:29:10 12° NW 11:29:12 12° NW 11:31:27 10° NNW
H-2A R/B 3.4 11:27:57 10° NNE 11:31:38 57° E 11:35:19 10° S
CZ-4B R/B 3.3 11:28:01 10° N 11:33:30 59° WNW 11:39:01 10° SSW
Cosmos 1869 Rocket 3.5 11:31:43 10° SSW 11:35:57 58° W 11:40:15 10° N
Okean 1 3.2 11:32:29 10° NNW 11:36:28 73° W 11:40:24 10° S
Cosmos 676 Rocket 4.2 11:31:39 10° NNW 11:36:46 54° WSW 11:41:53 10° S
SL-23 DEB 3.4 11:34:50 10° SW 11:38:02 77° SE 11:41:22 10° ENE
ADEOS Rocket 3.8 11:31:54 10° SSE 11:39:04 66° ENE 11:45:35 10° N
Cosmos 2026 Rocket 4.0 11:34:08 10° NNW 11:40:13 63° W 11:46:20 10° S
FENGYUN 3A 4.2 11:39:34 10° N 11:44:24 35° WNW 11:49:13 10° SW
Lacrosse 5 3.7 11:41:51 10° W 11:44:28 15° WSW 11:47:14 10° SSW
Meteor 1-19 Rocket 4.2 11:41:12 10° N 11:46:43 85° W 11:52:18 10° S
Cosmos 2279 Rocket 4.0 11:40:58 10° S 11:47:10 80° W 11:53:24 10° N
Radarsat Rocket 4.1 11:42:06 10° NNE 11:48:10 72° WNW 11:54:56 10° SSW
SL-24 R/B 4.3 11:43:35 10° S 11:48:16 56° W 11:52:30 10° NNW
Cosmos 1954 Rocket 4.4 11:43:56 10° NNW 11:48:55 44° WSW 11:53:54 10° S
Cosmos 1634 Rocket 4.3 11:44:35 10° SSW 11:50:30 45° WNW 11:56:27 10° N
Cosmos 1655 Rocket 4.3 11:44:41 10° N 11:50:56 76° E 11:57:09 10° SSE
Cosmos 1420 Rocket 4.3 11:46:40 10° SW 11:51:36 43° WNW 11:56:33 10° N
CZ-2C R/B 4.4 11:47:37 10° SSE 11:52:13 60° ENE 11:56:54 10° N
Cosmos 1943 3.2 11:47:28 10° NNW 11:53:04 71° WSW 11:58:38 10° SSE
BREEZE-M DEB (TANK) 3.9 11:46:24 10° W 11:53:45 34° NNW 11:56:39 10° NE
